When you browse on this site, cookies collect data to enhance your experience and personalize the content and advertising you see.
Visit our Privacy Policy to learn more. By continuing to use the site, you agree to this use of cookies and data.
  • In Romania
  • List of Countries
  • For 7 days
  • Water Temperature
  • Satellite Maps
  • Weather Map
  • Weather Widgets
  • user-avatar
    Login

    Hourly Weather Matlock

    Today, 18 February, Monday

    Time Temperature Precipitation Wind Pressure Humidity
    00:00 +5°C° 0 mm 5 mps 742 mmHg 92%
    01:00 +5°C° 0 mm 5 mps 742 mmHg 92%
    02:00 +4°C° 0 mm 6 mps 742 mmHg 91%
    03:00 +4°C° 0 mm 6 mps 742 mmHg 91%
    04:00 +4°C° 0 mm 6 mps 742 mmHg 91%
    05:00 +4°C° 0 mm 6 mps 742 mmHg 91%
    06:00 +4°C° 0 mm 6 mps 742 mmHg 92%
    07:00 +4°C° 0 mm 6 mps 742 mmHg 90%
    08:00 +5°C° 0 mm 7 mps 741 mmHg 89%
    09:00 +5°C° 0 mm 7 mps 741 mmHg 87%
    10:00 +5°C° 0 mm 7 mps 741 mmHg 84%
    11:00 +6°C° 0 mm 7 mps 741 mmHg 80%
    12:00 +6°C° 0 mm 7 mps 741 mmHg 77%
    13:00 +8°C° 0.1 mm 7 mps 741 mmHg 73%
    14:00 +8°C° 0.1 mm 7 mps 741 mmHg 70%
    15:00 +8°C° 0.1 mm 6 mps 741 mmHg 67%
    16:00 +7°C° 0 mm 6 mps 741 mmHg 70%
    17:00 +6°C° 0 mm 5 mps 741 mmHg 72%
    18:00 +5°C° 0 mm 5 mps 741 mmHg 75%
    19:00 +5°C° 0 mm 5 mps 741 mmHg 78%
    20:00 +3°C° 0 mm 6 mps 741 mmHg 81%
    21:00 +3°C° 0 mm 6 mps 741 mmHg 84%
    22:00 +3°C° 0 mm 6 mps 742 mmHg 85%
    23:00 +3°C° 0 mm 6 mps 742 mmHg 85%

    Tomorrow, 19 February, Tuesday

    Time Temperature Precipitation Wind Pressure Humidity
    00:00 +3°C° 0 mm 5 mps 742 mmHg 86%
    01:00 +3°C° 0 mm 5 mps 743 mmHg 86%
    02:00 +3°C° 0 mm 5 mps 743 mmHg 87%
    03:00 +3°C° 0 mm 5 mps 743 mmHg 87%
    04:00 +3°C° 0 mm 5 mps 743 mmHg 88%
    05:00 +3°C° 0 mm 5 mps 744 mmHg 89%
    06:00 +3°C° 0 mm 4 mps 744 mmHg 91%
    07:00 +3°C° 0 mm 4 mps 744 mmHg 89%
    08:00 +2°C° 0 mm 5 mps 744 mmHg 87%
    09:00 +3°C° 0 mm 5 mps 745 mmHg 85%
    10:00 +5°C° 0 mm 5 mps 745 mmHg 80%
    11:00 +6°C° 0 mm 5 mps 745 mmHg 75%
    12:00 +5°C° 0 mm 6 mps 745 mmHg 69%
    13:00 +7°C° 0 mm 6 mps 745 mmHg 69%
    14:00 +7°C° 0 mm 6 mps 745 mmHg 69%
    15:00 +7°C° 0 mm 6 mps 744 mmHg 69%
    16:00 +6°C° 0 mm 5 mps 744 mmHg 73%
    17:00 +6°C° 0 mm 5 mps 744 mmHg 76%
    18:00 +5°C° 0 mm 5 mps 744 mmHg 80%
    19:00 +5°C° 0.1 mm 5 mps 744 mmHg 82%
    20:00 +4°C° 0.1 mm 6 mps 744 mmHg 83%
    21:00 +4°C° 0.1 mm 6 mps 744 mmHg 85%
    22:00 +4°C° 0.3 mm 7 mps 743 mmHg 86%
    23:00 +4°C° 0.3 mm 7 mps 743 mmHg 87%

    Day after tomorrow, 20 February, Wednesday

    Time Temperature Precipitation Wind Pressure Humidity
    00:00 +4°C° 0.3 mm 8 mps 743 mmHg 89%
    01:00 +5°C° 0.4 mm 8 mps 743 mmHg 89%
    02:00 +5°C° 0.4 mm 8 mps 742 mmHg 89%
    03:00 +5°C° 0.4 mm 8 mps 742 mmHg 89%
    04:00 +5°C° 0.2 mm 8 mps 742 mmHg 89%
    05:00 +6°C° 0.2 mm 8 mps 742 mmHg 89%
    06:00 +6°C° 0.2 mm 7 mps 742 mmHg 89%
    07:00 +6°C° 0.1 mm 8 mps 742 mmHg 88%
    08:00 +6°C° 0.1 mm 8 mps 743 mmHg 87%
    09:00 +6°C° 0.1 mm 8 mps 743 mmHg 86%
    10:00 +7°C° 0 mm 8 mps 743 mmHg 84%
    11:00 +8°C° 0 mm 9 mps 744 mmHg 82%
    12:00 +10°C° 0 mm 9 mps 744 mmHg 79%
    13:00 +10°C° 0 mm 8 mps 744 mmHg 80%
    14:00 +10°C° 0 mm 8 mps 744 mmHg 81%
    15:00 +9°C° 0 mm 7 mps 744 mmHg 83%
    16:00 +9°C° 0 mm 7 mps 744 mmHg 84%
    17:00 +9°C° 0 mm 7 mps 745 mmHg 85%
    18:00 +9°C° 0 mm 7 mps 745 mmHg 86%
    19:00 +9°C° 0 mm 7 mps 745 mmHg 87%
    20:00 +8°C° 0 mm 6 mps 746 mmHg 89%
    21:00 +8°C° 0 mm 6 mps 746 mmHg 90%
    22:00 +8°C° 0 mm 6 mps 747 mmHg 91%
    23:00 +8°C° 0 mm 6 mps 747 mmHg 91%

    21 February, Thursday

    Time Temperature Precipitation Wind Pressure Humidity
    00:00 +8°C° 0 mm 6 mps 747 mmHg 92%
    01:00 +8°C° 0 mm 6 mps 747 mmHg 92%
    02:00 +8°C° 0 mm 6 mps 748 mmHg 93%
    03:00 +7°C° 0 mm 6 mps 748 mmHg 94%
    04:00 +7°C° 0 mm 5 mps 748 mmHg 94%
    05:00 +7°C° 0 mm 5 mps 748 mmHg 94%
    06:00 +7°C° 0 mm 5 mps 749 mmHg 95%
    07:00 +7°C° 0 mm 5 mps 749 mmHg 94%
    08:00 +7°C° 0 mm 5 mps 750 mmHg 93%
    09:00 +7°C° 0 mm 5 mps 751 mmHg 91%
    10:00 +8°C° 0 mm 5 mps 751 mmHg 87%
    11:00 +9°C° 0 mm 5 mps 751 mmHg 83%
    12:00 +10°C° 0 mm 6 mps 752 mmHg 79%
    13:00 +10°C° 0 mm 5 mps 752 mmHg 79%
    14:00 +10°C° 0 mm 5 mps 752 mmHg 78%
    15:00 +10°C° 0 mm 5 mps 752 mmHg 77%
    16:00 +10°C° 0 mm 4 mps 752 mmHg 82%
    17:00 +8°C° 0 mm 4 mps 752 mmHg 86%
    18:00 +8°C° 0 mm 3 mps 752 mmHg 90%
    19:00 +8°C° 0 mm 3 mps 753 mmHg 91%
    20:00 +7°C° 0 mm 4 mps 753 mmHg 91%
    21:00 +7°C° 0 mm 4 mps 754 mmHg 92%
    22:00 +6°C° 0 mm 4 mps 754 mmHg 92%
    23:00 +6°C° 0 mm 4 mps 754 mmHg 92%

    22 February, Friday

    Time Temperature Precipitation Wind Pressure Humidity
    00:00 +6°C° 0 mm 4 mps 755 mmHg 92%
    01:00 +6°C° 0 mm 4 mps 755 mmHg 91%
    02:00 +6°C° 0 mm 4 mps 755 mmHg 90%
    03:00 +6°C° 0 mm 4 mps 755 mmHg 89%
    04:00 +6°C° 0 mm 4 mps 755 mmHg 90%
    05:00 +5°C° 0 mm 4 mps 755 mmHg 90%
    06:00 +5°C° 0 mm 4 mps 755 mmHg 90%
    07:00 +6°C° 0 mm 4 mps 756 mmHg 87%
    08:00 +7°C° 0 mm 4 mps 756 mmHg 83%
    09:00 +7°C° 0 mm 5 mps 757 mmHg 79%
    10:00 +9°C° 0 mm 5 mps 757 mmHg 74%
    11:00 +10°C° 0 mm 5 mps 757 mmHg 68%
    12:00 +12°C° 0 mm 5 mps 757 mmHg 62%
    13:00 +12°C° 0 mm 5 mps 757 mmHg 63%
    14:00 +13°C° 0 mm 5 mps 757 mmHg 64%
    15:00 +13°C° 0 mm 5 mps 756 mmHg 65%
    16:00 +12°C° 0 mm 5 mps 757 mmHg 71%
    17:00 +10°C° 0 mm 4 mps 757 mmHg 77%
    18:00 +8°C° 0 mm 4 mps 757 mmHg 83%
    19:00 +8°C° 0 mm 4 mps 757 mmHg 84%
    20:00 +7°C° 0 mm 4 mps 757 mmHg 85%
    21:00 +7°C° 0 mm 4 mps 758 mmHg 85%
    22:00 +6°C° 0 mm 4 mps 758 mmHg 85%
    23:00 +6°C° 0 mm 4 mps 758 mmHg 84%

    23 February, Saturday

    Time Temperature Precipitation Wind Pressure Humidity
    00:00 +5°C° 0 mm 3 mps 758 mmHg 84%
    01:00 +5°C° 0 mm 3 mps 758 mmHg 85%
    02:00 +5°C° 0 mm 3 mps 757 mmHg 86%
    03:00 +4°C° 0 mm 3 mps 757 mmHg 87%
    04:00 +4°C° 0 mm 3 mps 757 mmHg 89%
    05:00 +4°C° 0 mm 3 mps 757 mmHg 90%
    06:00 +4°C° 0 mm 3 mps 757 mmHg 92%
    07:00 +5°C° 0 mm 3 mps 758 mmHg 89%
    08:00 +7°C° 0 mm 3 mps 758 mmHg 86%
    09:00 +7°C° 0 mm 3 mps 758 mmHg 83%
    10:00 +8°C° 0 mm 4 mps 758 mmHg 77%
    11:00 +10°C° 0 mm 4 mps 758 mmHg 71%
    12:00 +12°C° 0 mm 4 mps 758 mmHg 65%
    13:00 +12°C° 0 mm 4 mps 758 mmHg 64%
    14:00 +13°C° 0 mm 4 mps 757 mmHg 63%
    15:00 +13°C° 0 mm 3 mps 757 mmHg 62%
    16:00 +12°C° 0 mm 3 mps 757 mmHg 70%
    17:00 +10°C° 0 mm 3 mps 757 mmHg 77%
    18:00 +9°C° 0 mm 2 mps 757 mmHg 84%
    19:00 +8°C° 0 mm 2 mps 757 mmHg 86%
    20:00 +8°C° 0 mm 2 mps 757 mmHg 88%
    21:00 +8°C° 0 mm 2 mps 757 mmHg 90%
    22:00 +7°C° 0 mm 2 mps 757 mmHg 91%
    23:00 +7°C° 0 mm 2 mps 757 mmHg 91%
    Show more